When you browse on this site, cookies collect data to enhance your experience and personalize the content and advertising you see.
Visit our Privacy Policy to learn more. By continuing to use the site, you agree to this use of cookies and data.
  • In Hungary
  • List of Countries
  • For 7 days
  • Water Temperature
  • Weather Map
  • News
  • Weather Widgets
  • user-avatar
    Login

    Hourly Weather Bodzentyn

    Today, 6 December, Friday

    Time Temperature Precipitation Wind Pressure Humidity
    00:00 -3°C° 0 mm 4 mps 740 mmHg 71%
    01:00 -4°C° 0 mm 3 mps 739 mmHg 78%
    02:00 -4°C° 0 mm 3 mps 739 mmHg 78%
    03:00 -4°C° 0 mm 4 mps 738 mmHg 77%
    04:00 -4°C° 0 mm 4 mps 738 mmHg 76%
    05:00 -4°C° 0 mm 4 mps 738 mmHg 75%
    06:00 -4°C° 0 mm 4 mps 738 mmHg 74%
    07:00 -4°C° 0 mm 4 mps 738 mmHg 73%
    08:00 -3°C° 0 mm 4 mps 738 mmHg 70%
    09:00 -4°C° 0 mm 5 mps 737 mmHg 66%
    10:00 -3°C° 0 mm 6 mps 737 mmHg 63%
    11:00 -2°C° 0 mm 6 mps 737 mmHg 60%
    12:00 0°C° 0 mm 5 mps 737 mmHg 56%
    13:00 0°C° 0 mm 5 mps 736 mmHg 53%
    14:00 0°C° 0 mm 5 mps 736 mmHg 56%
    15:00 -1°C° 0 mm 5 mps 736 mmHg 60%
    16:00 -2°C° 0 mm 5 mps 735 mmHg 63%
    17:00 -2°C° 0 mm 5 mps 735 mmHg 63%
    18:00 -2°C° 0 mm 5 mps 735 mmHg 63%
    19:00 -2°C° 0 mm 5 mps 735 mmHg 64%
    20:00 -2°C° 0 mm 5 mps 735 mmHg 64%
    21:00 -2°C° 0 mm 5 mps 735 mmHg 64%
    22:00 -2°C° 0 mm 5 mps 734 mmHg 64%
    23:00 -2°C° 0 mm 5 mps 734 mmHg 64%

    Tomorrow, 7 December, Saturday

    Time Temperature Precipitation Wind Pressure Humidity
    00:00 -2°C° 0 mm 5 mps 734 mmHg 65%
    01:00 -2°C° 0 mm 5 mps 734 mmHg 65%
    02:00 -2°C° 0 mm 5 mps 733 mmHg 64%
    03:00 -2°C° 0 mm 5 mps 733 mmHg 64%
    04:00 -2°C° 0 mm 5 mps 732 mmHg 64%
    05:00 -2°C° 0 mm 5 mps 732 mmHg 64%
    06:00 -2°C° 0 mm 5 mps 732 mmHg 63%
    07:00 -1°C° 0 mm 5 mps 732 mmHg 63%
    08:00 -2°C° 0 mm 6 mps 732 mmHg 65%
    09:00 -1°C° 0 mm 6 mps 732 mmHg 67%
    10:00 0°C° 0 mm 7 mps 732 mmHg 69%
    11:00 +2°C° 0 mm 7 mps 732 mmHg 71%
    12:00 +2°C° 0 mm 6 mps 731 mmHg 72%
    13:00 +3°C° 0 mm 6 mps 731 mmHg 73%
    14:00 +3°C° 0.1 mm 7 mps 731 mmHg 78%
    15:00 +3°C° 0.1 mm 7 mps 731 mmHg 82%
    16:00 +2°C° 0.1 mm 8 mps 731 mmHg 87%
    17:00 +3°C° 0.1 mm 7 mps 731 mmHg 87%
    18:00 +3°C° 0.1 mm 7 mps 731 mmHg 87%
    19:00 +3°C° 0.1 mm 7 mps 732 mmHg 88%
    20:00 +3°C° 0.1 mm 6 mps 732 mmHg 88%
    21:00 +3°C° 0.1 mm 6 mps 732 mmHg 89%
    22:00 +3°C° 0.1 mm 6 mps 732 mmHg 90%
    23:00 +3°C° 0.4 mm 6 mps 732 mmHg 90%

    Day after tomorrow, 8 December, Sunday

    Time Temperature Precipitation Wind Pressure Humidity
    00:00 +3°C° 0.4 mm 6 mps 733 mmHg 91%
    01:00 +3°C° 0.4 mm 5 mps 733 mmHg 91%
    02:00 +3°C° 0.3 mm 5 mps 733 mmHg 90%
    03:00 +3°C° 0.3 mm 5 mps 733 mmHg 89%
    04:00 +3°C° 0.3 mm 5 mps 733 mmHg 88%
    05:00 +3°C° 0.1 mm 5 mps 733 mmHg 88%
    06:00 +3°C° 0.1 mm 5 mps 733 mmHg 88%
    07:00 +3°C° 0.1 mm 5 mps 734 mmHg 88%
    08:00 +3°C° 0 mm 5 mps 734 mmHg 85%
    09:00 +3°C° 0 mm 5 mps 734 mmHg 82%
    10:00 +4°C° 0 mm 6 mps 734 mmHg 80%
    11:00 +4°C° 0 mm 6 mps 733 mmHg 78%
    12:00 +4°C° 0 mm 6 mps 733 mmHg 76%
    13:00 +4°C° 0 mm 6 mps 733 mmHg 74%
    14:00 +4°C° 0 mm 6 mps 732 mmHg 75%
    15:00 +3°C° 0 mm 5 mps 732 mmHg 76%
    16:00 +3°C° 0 mm 5 mps 731 mmHg 77%
    17:00 +3°C° 0 mm 5 mps 731 mmHg 76%
    18:00 +4°C° 0 mm 6 mps 731 mmHg 76%
    19:00 +4°C° 0 mm 6 mps 730 mmHg 75%
    20:00 +4°C° 0 mm 6 mps 730 mmHg 74%
    21:00 +4°C° 0 mm 6 mps 729 mmHg 73%
    22:00 +4°C° 0 mm 7 mps 729 mmHg 72%
    23:00 +4°C° 0.2 mm 6 mps 728 mmHg 76%

    9 December, Monday

    Time Temperature Precipitation Wind Pressure Humidity
    00:00 +4°C° 0.2 mm 6 mps 728 mmHg 79%
    01:00 +4°C° 0.2 mm 6 mps 728 mmHg 82%
    02:00 +4°C° 0.2 mm 6 mps 727 mmHg 82%
    03:00 +4°C° 0.2 mm 6 mps 727 mmHg 82%
    04:00 +5°C° 0.2 mm 5 mps 727 mmHg 82%
    05:00 +5°C° 0.4 mm 5 mps 727 mmHg 83%
    06:00 +5°C° 0.4 mm 5 mps 726 mmHg 83%
    07:00 +5°C° 0.4 mm 5 mps 726 mmHg 84%
    08:00 +5°C° 0 mm 5 mps 726 mmHg 83%
    09:00 +5°C° 0 mm 5 mps 726 mmHg 82%
    10:00 +6°C° 0 mm 5 mps 726 mmHg 81%
    11:00 +6°C° 0.1 mm 5 mps 726 mmHg 79%
    12:00 +6°C° 0.1 mm 5 mps 726 mmHg 76%
    13:00 +6°C° 0.1 mm 5 mps 726 mmHg 73%
    14:00 +6°C° 0 mm 4 mps 726 mmHg 76%
    15:00 +5°C° 0 mm 4 mps 726 mmHg 78%
    16:00 +5°C° 0 mm 3 mps 726 mmHg 81%
    17:00 +4°C° 0 mm 3 mps 726 mmHg 82%
    18:00 +4°C° 0 mm 3 mps 726 mmHg 83%
    19:00 +3°C° 0 mm 3 mps 726 mmHg 84%
    20:00 +3°C° 0 mm 3 mps 726 mmHg 86%
    21:00 +3°C° 0 mm 3 mps 726 mmHg 87%
    22:00 +3°C° 0 mm 2 mps 726 mmHg 88%
    23:00 +3°C° 0 mm 2 mps 726 mmHg 88%

    10 December, Tuesday

    Time Temperature Precipitation Wind Pressure Humidity
    00:00 +3°C° 0 mm 2 mps 725 mmHg 88%
    01:00 +2°C° 0 mm 2 mps 725 mmHg 88%
    02:00 +1°C° 0 mm 3 mps 725 mmHg 88%
    03:00 +1°C° 0 mm 3 mps 726 mmHg 87%
    04:00 +1°C° 0 mm 3 mps 726 mmHg 87%
    05:00 0°C° 0 mm 4 mps 726 mmHg 88%
    06:00 0°C° 0 mm 4 mps 726 mmHg 89%
    07:00 0°C° 0 mm 4 mps 726 mmHg 90%
    08:00 +1°C° 0.1 mm 5 mps 727 mmHg 90%
    09:00 +1°C° 0.1 mm 5 mps 727 mmHg 89%
    10:00 +2°C° 0.1 mm 6 mps 728 mmHg 89%
    11:00 +2°C° 0.1 mm 6 mps 728 mmHg 89%
    12:00 +2°C° 0.1 mm 6 mps 729 mmHg 89%
    13:00 +2°C° 0.1 mm 7 mps 729 mmHg 89%
    14:00 +1°C° 0.1 mm 6 mps 729 mmHg 89%
    15:00 +1°C° 0.1 mm 6 mps 730 mmHg 89%
    16:00 +1°C° 0.1 mm 5 mps 731 mmHg 89%
    17:00 +1°C° 0 mm 6 mps 732 mmHg 88%
    18:00 -1°C° 0 mm 6 mps 733 mmHg 88%
    19:00 -1°C° 0 mm 6 mps 734 mmHg 88%
    20:00 -1°C° 0 mm 6 mps 734 mmHg 89%
    21:00 -2°C° 0 mm 6 mps 735 mmHg 90%
    22:00 -2°C° 0 mm 6 mps 736 mmHg 92%
    23:00 -2°C° 0.1 mm 6 mps 736 mmHg 92%

    11 December, Wednesday

    Time Temperature Precipitation Wind Pressure Humidity
    00:00 -1°C° 0.1 mm 5 mps 737 mmHg 92%
    01:00 -2°C° 0.1 mm 5 mps 737 mmHg 92%
    02:00 -2°C° 0 mm 5 mps 738 mmHg 89%
    03:00 -2°C° 0 mm 4 mps 738 mmHg 87%
    04:00 -2°C° 0 mm 4 mps 738 mmHg 84%
    05:00 -2°C° 0 mm 3 mps 738 mmHg 84%
    06:00 -2°C° 0 mm 2 mps 738 mmHg 84%
    07:00 -1°C° 0 mm 1 mps 738 mmHg 84%
    08:00 -2°C° 0 mm 2 mps 738 mmHg 80%
    09:00 -2°C° 0 mm 2 mps 738 mmHg 76%
    10:00 -2°C° 0 mm 2 mps 738 mmHg 72%
    11:00 -1°C° 0 mm 3 mps 737 mmHg 68%
    12:00 -1°C° 0 mm 3 mps 737 mmHg 65%
    13:00 0°C° 0 mm 3 mps 736 mmHg 61%
    14:00 -1°C° 0 mm 3 mps 736 mmHg 65%
    15:00 -1°C° 0 mm 3 mps 735 mmHg 69%
    16:00 -2°C° 0 mm 3 mps 735 mmHg 73%
    17:00 -2°C° 0 mm 3 mps 735 mmHg 75%
    18:00 -2°C° 0 mm 3 mps 734 mmHg 77%
    19:00 -2°C° 0 mm 3 mps 734 mmHg 79%
    20:00 -2°C° 0 mm 3 mps 734 mmHg 79%
    21:00 -2°C° 0 mm 3 mps 734 mmHg 80%
    22:00 -2°C° 0 mm 2 mps 734 mmHg 80%
    23:00 -2°C° 0 mm 2 mps 733 mmHg 81%
    Show more